FW9068 Weather Reports


Display with metric or nautical units.
time (UTC)temp
F
wind
direction
speed
MPH
gust
MPH
rain 1hr
in
rain 24hr
in
rain mn
in
humidity
%
barometer
mb
20260507071551 50 134 0.0 3.0 0.00 0.38 0.00 90 1006.3
20260507070106 50 79 0.0 3.0 0.00 0.38 0.00 91 1005.8
20260507064550 50 0 0.0 5.0 0.00 0.38 0.00 91 1005.8
20260507063058 50 136 0.0 2.0 0.00 0.38 0.00 91 1005.6
20260507061549 51 129 0.0 3.0 0.00 0.38 0.00 91 1005.7
20260507060048 51 0 0.0 3.0 0.00 0.38 0.00 92 1005.9
20260507054553 52 0 0.0 3.0 0.00 0.38 0.00 92 1005.8
20260507053052 52 0 0.0 3.0 0.00 0.38 0.00 92 1005.9
20260507051551 52 0 0.0 2.0 0.00 0.38 0.00 92 1005.4
20260507050048 53 128 0.0 4.0 0.00 0.38 0.00 93 1005.6
20260507044552 54 127 0.0 1.0 0.00 0.38 0.00 93 1005.8
20260507043049 54 0 0.0 1.0 0.00 0.38 0.00 93 1005.6
20260507041549 55 142 0.0 3.0 0.00 0.38 0.00 93 1005.4
20260507040049 55 0 0.0 3.0 0.00 0.38 0.00 93 1005.3
20260507034547 56 141 0.0 7.0 0.00 0.38 0.38 95 1004.9
20260507033102 58 123 1.0 5.0 0.00 0.38 0.38 96 1005.2
20260507031604 59 0 0.0 4.0 0.00 0.38 0.38 96 1004.8
20260507030053 58 115 0.0 2.0 0.00 0.38 0.38 96 1004.5
20260507024552 58 0 0.0 1.0 0.00 0.38 0.38 96 1004.4
20260507023052 58 0 0.0 1.0 0.00 0.38 0.38 96 1004.6
20260507021553 57 0 0.0 1.0 0.00 0.38 0.38 96 1004.6
20260507020051 56 0 0.0 1.0 0.00 0.38 0.38 96 1004.8
20260507014554 56 0 0.0 2.0 0.00 0.38 0.38 96 1005.0
20260507013101 55 117 0.0 1.0 0.00 0.38 0.38 96 1005.1
20260507011552 55 0 0.0 1.0 0.00 0.38 0.38 96 1005.2
20260507010055 55 0 0.0 2.0 0.01 0.38 0.38 96 1005.1
20260507004551 55 114 0.0 2.0 0.02 0.38 0.38 96 1005.3
20260507003047 56 114 1.0 2.0 0.04 0.38 0.38 96 1005.3
20260507001552 56 123 0.0 3.0 0.05 0.38 0.38 96 1005.2
20260507000055 56 0 0.0 4.0 0.04 0.37 0.37 96 1005.0
20260506234554 56 0 1.0 3.0 0.04 0.36 0.36 96 1005.0
20260506233104 56 114 0.0 3.0 0.03 0.34 0.34 96 1005.1
20260506231553 56 97 0.0 3.0 0.03 0.33 0.33 95 1005.3
20260506224549 56 117 0.0 4.0 0.06 0.32 0.32 95 1005.4
20260506223050 56 0 0.0 4.0 0.06 0.31 0.31 95 1005.6
20260506221555 57 0 0.0 4.0 0.06 0.30 0.30 95 1005.6
20260506220048 57 109 1.0 4.0 0.05 0.28 0.28 95 1005.8
20260506214546 57 97 1.0 6.0 0.05 0.26 0.26 95 1005.9
20260506213048 57 117 1.0 4.0 0.07 0.25 0.25 95 1006.1
20260506211554 58 0 2.0 6.0 0.12 0.24 0.24 94 1006.2
20260506210049 58 0 1.0 5.0 0.12 0.23 0.23 94 1006.3
20260506204548 58 103 1.0 5.0 0.12 0.21 0.21 94 1006.3
20260506203048 58 115 1.0 4.0 0.10 0.18 0.18 93 1006.3
20260506201546 59 103 0.0 4.0 0.09 0.12 0.12 93 1006.2
20260506200052 60 0 0.0 2.0 0.09 0.11 0.11 93 1006.2
20260506194549 60 120 0.0 1.0 0.08 0.09 0.09 93 1006.2
20260506193047 60 0 0.0 1.0 0.08 0.08 0.08 92 1006.6
20260506191546 61 0 0.0 1.0 0.03 0.03 0.03 90 1006.8
20260506190047 61 0 0.0 3.0 0.02 0.02 0.02 87 1006.6
20260506184546 61 121 1.0 5.0 0.01 0.01 0.01 85 1006.3
20260506183053 62 101 1.0 6.0 0.00 0.00 0.00 80 1006.5
20260506181548 63 0 3.0 9.0 0.00 0.00 0.00 76 1006.5
20260506180049 63 54 1.0 7.0 0.00 0.00 0.00 76 1006.5
20260506174548 64 139 2.0 9.0 0.00 0.00 0.00 75 1006.8
20260506173100 64 115 2.0 6.0 0.00 0.00 0.00 73 1006.9
20260506171553 65 70 3.0 6.0 0.00 0.00 0.00 72 1007.1
20260506170100 64 98 2.0 5.0 0.00 0.00 0.00 74 1007.2
20260506164606 65 274 2.0 5.0 0.00 0.00 0.00 74 1007.3
20260506163058 65 100 1.0 6.0 0.00 0.00 0.00 74 1007.5
20260506161551 64 106 3.0 5.0 0.00 0.00 0.00 75 1007.9
20260506160106 65 0 2.0 6.0 0.00 0.00 0.00 75 1008.2
20260506154553 65 105 2.0 5.0 0.00 0.00 0.00 75 1008.5
20260506153055 64 51 2.0 5.0 0.00 0.00 0.00 76 1008.6
20260506151548 65 122 1.0 5.0 0.00 0.00 0.00 75 1008.6
20260506150048 65 103 1.0 5.0 0.00 0.00 0.00 74 1008.7
20260506144553 65 94 1.0 4.0 0.00 0.00 0.00 75 1008.5
20260506143051 64 101 1.0 6.0 0.00 0.00 0.00 76 1008.3
20260506141606 63 109 1.0 3.0 0.00 0.00 0.00 78 1008.5
20260506140055 63 86 1.0 4.0 0.00 0.00 0.00 77 1008.5
20260506134553 63 109 0.0 3.0 0.00 0.00 0.00 78 1008.7
20260506133059 63 115 1.0 3.0 0.00 0.00 0.00 78 1008.8
20260506131555 63 109 1.0 4.0 0.00 0.00 0.00 76 1008.7
20260506130048 64 111 0.0 3.0 0.00 0.00 0.00 76 1008.8
20260506124553 64 91 0.0 3.0 0.00 0.00 0.00 77 1008.6
20260506123048 63 91 1.0 4.0 0.00 0.00 0.00 79 1008.9
20260506121559 62 98 1.0 3.0 0.00 0.00 0.00 79 1008.8
20260506120118 62 0 0.0 2.0 0.00 0.00 0.00 79 1009.0
20260506114551 62 103 0.0 3.0 0.00 0.00 0.00 79 1009.2
20260506113051 62 0 1.0 4.0 0.00 0.00 0.00 79 1009.2
20260506111550 62 0 0.0 3.0 0.00 0.00 0.00 79 1009.1
20260506110056 62 115 0.0 2.0 0.00 0.00 0.00 79 1009.3
20260506104549 62 0 0.0 1.0 0.00 0.00 0.00 80 1009.2
20260506103054 62 0 0.0 2.0 0.00 0.00 0.00 80 1009.2
20260506101558 61 0 0.0 3.0 0.00 0.00 0.00 79 1009.3
20260506100054 61 0 0.0 2.0 0.00 0.00 0.00 80 1009.2
20260506094551 61 117 0.0 2.0 0.00 0.00 0.00 80 1009.2
20260506093051 61 0 0.0 1.0 0.00 0.00 0.00 80 1009.2
20260506091552 61 0 1.0 3.0 0.00 0.00 0.00 79 1009.1
20260506090052 61 106 0.0 1.0 0.00 0.00 0.00 78 1009.0
20260506084552 61 0 0.0 2.0 0.00 0.00 0.00 78 1009.0
20260506083051 62 0 0.0 2.0 0.00 0.00 0.00 77 1008.9
20260506081552 61 114 0.0 3.0 0.00 0.00 0.00 77 1008.8
20260506073059 60 0 0.0 2.0 0.00 0.00 0.00 78 1008.5